www.pogodaiklimat.ru

Погода и климат >> Архив погоды >> Россия >> Коми >> Печора


АРХИВ ПОГОДЫ в Печоре

Время (UTC), дата Ветер
(напр.,м/с)
 
Видим.   Явления Облачность Т
(С)
Тd
(С)
f
(%)
Тe
(С)
Тes
(С)
Комфортность P
(гПа)
Po
(гПа)
Тmin
(С)
Tmax
(С)
R
(мм)
R24
(мм)
S
(см)
18 13.06 СЗ 6-10
{11}
10 км слаб. ливневой дождь 10/8 330 м
[Cb cap Ac und]
+1.9 +1.4 96 -4 -4 очень
холодно
1010.2 1003.0
21 13.06 СЗ 5
{11}
10 км слаб. ливневой дождь 10/8 240 м
[Cb cap Ac und]
+1.5 +1.0 96 -4 -4 очень
холодно
1009.5 1002.1
00 14.06 СЗ 6
{11}
15 км в посл. час ливневой дождь 10/10 480 м
[Sc]
+1.5 +0.1 90 -5 -5 очень
холодно
1009.3 1001.9
03 14.06 СЗ 5
{10}
15 км в посл. час ливневой снег 10/8 330 м
[Cb cap Ac und]
+1.6 +0.8 94 -4 -4 очень
холодно
1009.7 1002.3 +1.1 5
06 14.06 СЗ 5
{10}
15 км в посл. час ливневой снег 9/8 570 м
[Cb cap Ac trans]
+3.1 +1.8 91 -2 -1 очень
холодно
1010.3 1003.1
09 14.06 С 3 7000 м слаб. ливневой дождь 8/6 630 м
[Cb cap Ac trans Ci fib]
+5.4 +3.5 88 +2 +5 очень
холодно
1010.2 1003.0
12 14.06 СЗ 5
{10}
15 км в посл. час ливневой дождь 8/8 600 м
[Cb cap]
+7.6 +2.0 68 +4 +5 очень
холодно
1009.4 1002.3
15 14.06 СЗ 5 15 км 9/9 1200 м
[Cb cap]
+8.6 +0.4 56 +5 +6 очень
холодно
1008.7 1001.6 +9.4 2
18 14.06 штиль 0 15 км 9/0
[Ac trans]
+5.9 +1.1 71 +5 +5 холодно 1007.9 1000.7
21 14.06 З 1 15 км 10/0
[Ac und]
+4.9 +1.6 79 +4 +4 прохладно 1006.2 999.0
00 15.06 З 1 10 км слаб. ливневой дождь 10/8 870 м
[Cb cap Ac und]
+3.8 +2.8 93 +2 +2 прохладно 1005.1 997.9
03 15.06 ЮЗ 3 10 км слаб. ливневой дождь 10/8 400 м
[Cb cap Ac und]
+4.2 +3.5 95 0 +1 очень
холодно
1003.6 996.4 +3.6 2
06 15.06 СЗ 5 15 км {ливн. осадки} 9/9 930 м
[Cb cap]
+6.5 +2.6 76 +2 +3 очень
холодно
1002.9 995.7
09 15.06 СЗ 4
{10}
15 км {ливн. осадки} 9/4 600 м
[Cb cap Ac trans]
+7.0 +4.2 82 +3 +6 очень
холодно
1002.8 995.7
12 15.06 СЗ 6
{10}
15 км в посл. час ливневой дождь 9/8 1200 м
[Cb cap Ac trans]
+6.4 +2.8 78 +2 +2 очень
холодно
1003.3 996.1
15 15.06 СЗ 2
{10}
15 км {ливн. осадки} 8/4 930 м
[Cb cap Ac lent Cc]
+6.5 +3.9 83 +4 +5 очень
холодно
1003.6 996.4 +8.9 3
18 15.06 СЗ 2 15 км {ливн. осадки} 9/9 1500 м
[Sc]
+5.2 +3.0 86 +3 +3 очень
холодно
1003.6 996.4
21 15.06 СЗ 3 15 км {ливн. осадки} 9/6 1470 м
[Sc Ac trans]
+3.2 +1.9 91 -1 -1 очень
холодно
1003.9 996.7
00 16.06 З 2 15 км {ливн. осадки} 9/0
[Ac trans]
+2.8 +1.0 88 1003.5 996.2
03 16.06 З 4 15 км в посл. час ливневой дождь 9/9 600 м
[Cb cap]
+4.1 +2.6 90 -0 -0 очень
холодно
1003.0 995.8 +1.9 0.3
06 16.06 З 4 9000 м слаб. ливневой дождь 9/8 630 м
[Cb cap Ac trans]
+5.6 +4.2 91 +2 +3 очень
холодно
1002.0 994.9
09 16.06 З 4 15 км в посл. час ливневой дождь 9/8 870 м
[Cb cap Ac trans]
+8.3 +4.7 78 +5 +6 очень
холодно
1000.6 993.6
12 16.06 ЮЗ 4 15 км в посл. час ливневой дождь 9/8 540 м
[Cb cap Ac trans]
+8.6 +6.2 85 +5 +6 очень
холодно
1000.1 993.1
15 16.06 З 2 15 км в посл. час ливневой дождь 9/8 360 м
[Cb cap Ac trans]
+6.4 +5.7 95 +4 +4 очень
холодно
999.6 992.5 +9.3 4
18 16.06 З 2 15 км {ливн. осадки} 9/8 1110 м
[Sc Ac trans]
+6.7 +5.3 91 +4 +4 очень
холодно
999.9 992.9
21 16.06 СЗ 4 10 км слаб. ливневой дождь 9/8 600 м
[Cb cap Ac trans]
+5.7 +3.8 88 +2 +2 очень
холодно
999.6 992.5
00 17.06 З 2 15 км в посл. час ливневой дождь 9/4 600 м
[Cb cap Ac trans]
+5.2 +3.8 91 +3 +3 прохладно 999.6 992.5
03 17.06 СЗ 4 10 км слаб. ливневой дождь 9/9 1000 м
[Cb cap]
+4.6 +3.6 93 0 +1 очень
холодно
999.8 992.7 +4.5 0.6
06 17.06 СЗ 5 15 км в посл. час ливневой дождь 9/9 840 м
[Cb cap]
+6.1 +3.0 80 +2 +2 очень
холодно
1000.6 993.5
09 17.06 СЗ 5
{10}
15 км в посл. час ливневой дождь 9/6 1000 м
[Cb cap Ac trans]
+8.0 +3.1 71 +4 +6 очень
холодно
1001.1 994.1
12 17.06 СЗ 4
{11}
15 км {ливн. осадки} 9/6 1200 м
[Sc Ac trans]
+8.4 +1.3 61 +6 +7 очень
холодно
1002.4 995.3
15 17.06 СЗ 5
{10}
15 км {ливн. осадки} 9/5 800 м
[Cb cap Ac trans]
+6.4 +3.8 83 +2 +2 очень
холодно
1003.2 996.0 +8.8 1
18 17.06 З 4
{10}
15 км в посл. час ливневой дождь 10/5 660 м
[Cb cap Ac und]
+5.6 +3.2 85 +2 +2 очень
холодно
1003.1 995.9
21 17.06 З 3 15 км {ливн. осадки} 10/6 700 м
[Sc Ac und]
+4.8 +3.4 91 +1 +1 очень
холодно
1002.5 995.3
00 18.06 З 2 15 км {ливн. осадки} 10/0
[Ac und]
+4.3 +3.1 92 +1 +2 холодно 1001.8 994.7
03 18.06 СЗ 4 15 км {ливн. осадки} 9/9 540 м
[Cb cap]
+5.6 +2.7 82 +2 +2 очень
холодно
1001.4 994.3 +4.2 0.3
06 18.06 СЗ 5 15 км {ливн. осадки} 9/4 600 м
[Cb cap Ac trans]
+8.0 +1.7 64 +5 +6 очень
холодно
1001.5 994.5
09 18.06 СЗ 5-10
{13}
15 км {ливн. осадки} 9/5 1200 м
[Cb cap Ci fib]
+7.6 +1.7 66 +4 +7 очень
холодно
1003.0 995.9
12 18.06 СЗ 5
{10}
15 км {ливн. осадки} 9/4 1000 м
[Cb cap Ci fib]
+10.1 -0.4 48 +8 +9 очень
холодно
1003.6 996.5
15 18.06 СЗ 5 15 км 9/8 1500 м
[Sc Ci fib]
+9.8 -0.2 50 +7 +7 очень
холодно
1004.3 997.2 +10.6 0.0
18 18.06 З 1 15 км 9/8 1500 м
[Sc Ci fib]
+7.5 +0.7 62 +7 +7 холодно 1004.7 997.6
21 18.06 СЗ 2 15 км 9/0
[Ac trans]
+6.6 +2.5 75 +4 +4 холодно 1004.7 997.5
00 19.06 СЗ 3 15 км 9/9 1320 м
[Sc]
+5.0 +0.9 75 +2 +2 холодно 1005.3 998.1
03 19.06 СЗ 4 15 км 8/8 1020 м
[Sc]
+6.1 +1.3 71 +3 +3 очень
холодно
1005.8 998.6 +4.5
06 19.06 СЗ 4 15 км 9/9 1110 м
[Sc]
+6.6 +0.5 65 +3 +4 очень
холодно
1006.3 999.1
09 19.06 СЗ 4 15 км 9/9 1200 м
[Sc]
+7.2 +0.7 63 +4 +5 очень
холодно
1007.1 1000.0
12 19.06 З 4 15 км 9/9 1260 м
[Sc]
+8.1 +1.2 62 +5 +6 очень
холодно
1008.0 1000.9
15 19.06 З 3 15 км 9/0
[Ac trans]
+8.0 +1.7 64 +6 +6 очень
холодно
1008.5 1001.4 +9.5
18 19.06 СЗ 1 15 км 8/0
[Ac trans Ci fib]
+6.2 +1.7 73 +5 +5 очень
холодно
1008.2 1001.0
21 19.06 З 1 15 км 8/0
[Ac trans Ci fib]
+2.3 +1.0 91 +1 +1 очень
холодно
1007.6 1000.4
00 20.06 штиль 0 15 км 8/0
[Ac trans Ci sp]
+3.0 +1.5 90 +2 +2 холодно 1007.3 1000.1
03 20.06 ЮВ 2 15 км 9/0
[Ac trans]
+6.5 +1.8 72 +4 +6 очень
холодно
1006.0 998.8 +2.2
06 20.06 Ю 2 15 км 9/0
[Ac trans]
+8.4 +1.9 64 +7 +12 очень
холодно
1005.2 998.1
09 20.06 В 2 15 км 9/0
[Ac trans]
+12.0 +3.2 55 +11 +17 холодно 1004.1 997.1
12 20.06 СЗ 3 10 км слаб. ливневой дождь 10/8 1200 м
[Cb cap Ac und]
+9.5 +5.3 75 +7 +8 очень
холодно
1004.9 997.8
15 20.06 С 4 6000 м слаб. ливневой дождь 9/9 360 м
[Cb cap]
+7.1 +6.0 93 +3 +4 очень
холодно
1007.1 1000.0 +13.0 0.7

 

Местоположение метеостанции Печора (Коми, Россия): широта 65.12 долгота 57.10 высота над уровнем моря 59 м.

В архиве по умолчанию представлена погода в Печоре за последнюю неделю. Архивные данные за месяц целиком и за предыдущие месяцы, начиная с января 2011 года, Вы можете получить, выбрав интересующий диапазон дат из раскрывающегося списка и нажав кнопку "Ввод!".


*Определитесь, кто Вы:
робот инопланетянин человек

Внимание! Время в таблицах - всемирное. Для получения местного времени необходимо прибавить поправку, которая равна 3 ч.

Смотрите также архив погоды в соседних городах и на ближайших метеорологических станциях:

Погода в Усть-Усе (Коми, Россия) (95 км)
Погода в Усть-Щугоре (Коми, Россия) (98 км)
Погода в Усинске (Коми, Россия) (102 км)
Погода в Ираеле (Коми, Россия) (105 км)
Погода в Мутном Материке (Коми, Россия) (128 км)
Погода в Вуктыле (Коми, Россия) (144 км)
Погода в Ижме (Коми, Россия) (150 км)
Погода в Кедва-Воме (Коми, Россия) (196 км)
Погода в Саранпауле (Ханты-Мансийский АО, Россия) (202 км)
Погода в Харуте (Ненецкий АО, Россия) (222 км)

Пояснения к столбцам:

Ветер - указаны скорость ветра в м/с - средняя за 10 мин, порывы в срок и между сроками (в фигурных скобках) и направление, откуда дует ветер: С - северный, СВ - северо-восточный, В - восточный, ЮВ - юго-восточный, Ю - южный, ЮЗ - юго-западный, З - западный, СЗ - северо-западный.
Видимость - горизонтальная дальность видимости в метрах или километрах. При видимости от 1 до 10 км при отсутствии осадков обычно наблюдается дымка, при ухудшении видимости до 1 км и менее - туман. В сухую погоду видимость может ухудшаться дымом, пылью или мглою.
Явления - указаны атмосферные явления, наблюдавшиеся в срок или в последний час перед сроком; фигурными скобками обозначены явления, наблюдавшиеся между сроками (за 1-3 часа до срока); квадратными скобками обозначены град или гололедные отложения с указанием их диаметра в мм.
Облачность - указаны через наклонную черту общая и нижняя облачность в баллах и высота нижней границы облаков в метрах; квадратными скобками обозначены формы облаков: Ci - перистые, Cs - перисто-слоистые, Cc - перисто-кучевые, Ac - высококучевые, As - высокослоистые, Sc - слоисто-кучевые, Ns - слоисто-дождевые, Cu - кучевые, Cb - кучево-дождевые. Подробнее классификацию облаков см. в Атласе облаков (PDF).
T - Температура воздуха - температура, измеренная на высоте 2 м над землей.
Td - Температура точки росы - температура, при понижении до которой содержащийся в воздухе водяной пар достигнет насыщения.
f - Относительная влажность воздуха - влажноcть воздуха, измеренная на высоте 2 м над землей.
Te - Эффективная температура - температура, которую ощущает одетый по сезону человек в тени. Характеристика душности погоды. При расчете учитывается влияние влажности воздуха и скорости ветра на теплоощущения человека.
Tes - Эффективная температура на солнце - температура, которую ощущает человек, с поправкой на солнечный нагрев. Характеристика знойности погоды. Зависит от высоты солнца над горизонтом, облачности и скорости ветра. Ночью, в пасмурную погоду, а также при ветре 12 м/с и более поправка равна нулю.
P - Атмосферное давление - приведенное к уровню моря атмосферное давление.
Po - Атмосферное давление - измеренное на уровне метеостанции атмосферное давление.
Tmin - Минимальная температура - минимум температуры воздуха на высоте 2 м над землей.
Tmax - Максимальная температура - максимум температуры воздуха на высоте 2 м над землей.
R - Количество осадков - Количество выпавших осадков за период времени, мм. При наведении курсора мыши на число - период времени, за который выпало указанное количество осадков.
R24 - Количество осадков - Количество выпавших осадков за 24 часа, мм.
S - Снежный покров - Высота снежного покрова, см. При наведении курсора мыши на число - состояние снежного покрова и степень покрытия местности в баллах.